Location: Lourdes
(43.1000°N, 0.0500°W)
Time: 04:47:52
(UTC+00:00)

Cosmos 2285 Rocket - Pass Details

Date: 30 November 2020
Orbit: 971 x 998 km, 74.0° (Epoch: 24 January)

Event Time Altitude Azimuth Distance (km) Brightness Sun altitude
Rises 16:57:46 0° 343° (NNW) 3,715 7.0 -5.9°
Reaches altitude 10° 17:00:25 10° 348° (NNW) 2,759 6.3 -6.4°
Maximum altitude 17:06:40 54° 65° (ENE) 1,188 4.1 -7.4°
Drops below altitude 10° 17:12:50 10° 142° (SE) 2,725 6.2 -8.4°
Sets 17:15:25 0° 147° (SSE) 3,665 6.9 -8.9°
